ACA3752 KLAS-KLAX

Flight info

Callsign ACA3752
Flight time N/A
Altitude 28000
Route RADYR2 BLAQQ SHTNR ANJLL4
Aircraft A320/M-SDE3FGHIRWY/LB1

Departure

Time N/A
Airport Harry Reid International Airport (KLAS)

Arrival

Time 2026-04-24 04:25
Airport Los Angeles International Airport (KLAX)
Time Latitude Longitude Altitude Speed Heading
2026-04-24 04:04 34.32352 -116.70369 27949 ft 361 kts 247°
2026-04-24 04:05 34.31237 -116.73148 27372 ft 371 kts 247°
2026-04-24 04:05 34.30122 -116.75938 26929 ft 365 kts 247°
2026-04-24 04:05 34.29023 -116.78678 26520 ft 359 kts 247°
2026-04-24 04:05 34.27940 -116.81368 26112 ft 353 kts 247°
2026-04-24 04:06 34.26872 -116.84022 25700 ft 349 kts 247°
2026-04-24 04:06 34.25817 -116.86642 25279 ft 345 kts 247°
2026-04-24 04:06 34.24773 -116.89230 24868 ft 341 kts 247°
2026-04-24 04:06 34.23739 -116.91792 24436 ft 338 kts 247°
2026-04-24 04:07 34.22713 -116.94325 24010 ft 335 kts 247°
2026-04-24 04:07 34.21690 -116.96844 23538 ft 333 kts 247°
2026-04-24 04:07 34.20802 -116.99415 22975 ft 330 kts 255°
2026-04-24 04:07 34.20095 -117.02050 22468 ft 329 kts 254°
2026-04-24 04:08 34.19376 -117.04661 21970 ft 327 kts 254°
2026-04-24 04:08 34.18668 -117.07259 21479 ft 325 kts 254°
2026-04-24 04:08 34.17979 -117.09805 21047 ft 321 kts 254°
2026-04-24 04:08 34.17291 -117.12358 20600 ft 319 kts 254°
2026-04-24 04:09 34.16608 -117.14905 20135 ft 319 kts 253°
2026-04-24 04:09 34.15922 -117.17456 19660 ft 319 kts 254°
2026-04-24 04:09 34.15220 -117.20031 19256 ft 318 kts 253°
2026-04-24 04:09 34.14523 -117.22563 18797 ft 317 kts 253°
2026-04-24 04:10 34.13834 -117.25053 18366 ft 317 kts 253°
2026-04-24 04:10 34.13139 -117.27567 17859 ft 315 kts 253°
2026-04-24 04:10 34.12449 -117.30066 17419 ft 313 kts 253°
2026-04-24 04:11 34.11084 -117.35010 16563 ft 308 kts 253°
2026-04-24 04:11 34.10415 -117.37430 16125 ft 297 kts 254°
2026-04-24 04:11 34.09805 -117.39750 15724 ft 284 kts 255°
2026-04-24 04:11 34.09240 -117.42000 15341 ft 279 kts 255°
2026-04-24 04:12 34.08688 -117.44244 14959 ft 280 kts 255°
2026-04-24 04:12 34.08135 -117.46499 14584 ft 280 kts 255°
2026-04-24 04:12 34.07578 -117.48757 14205 ft 281 kts 255°
2026-04-24 04:12 34.06907 -117.50980 13835 ft 287 kts 249°
2026-04-24 04:13 34.06102 -117.53223 13444 ft 294 kts 249°
2026-04-24 04:13 34.05290 -117.55486 13062 ft 294 kts 249°
2026-04-24 04:13 34.04477 -117.57751 12691 ft 294 kts 249°
2026-04-24 04:13 34.03665 -117.60010 12323 ft 293 kts 248°
2026-04-24 04:14 34.02854 -117.62258 11955 ft 292 kts 248°
2026-04-24 04:14 34.02043 -117.64501 11568 ft 291 kts 248°
2026-04-24 04:14 34.01513 -117.65967 11407 ft 286 kts 248°
2026-04-24 04:14 34.00789 -117.68197 10983 ft 285 kts 256°
2026-04-24 04:15 34.00465 -117.70542 10612 ft 283 kts 264°
2026-04-24 04:15 34.00243 -117.72889 10258 ft 281 kts 264°
2026-04-24 04:15 34.00019 -117.75221 9937 ft 279 kts 264°
2026-04-24 04:15 33.99795 -117.77518 9559 ft 278 kts 263°
2026-04-24 04:16 33.99565 -117.79842 9204 ft 277 kts 263°
2026-04-24 04:16 33.99336 -117.82143 8854 ft 275 kts 263°
2026-04-24 04:16 33.99112 -117.84418 8512 ft 272 kts 264°
2026-04-24 04:16 33.98893 -117.86664 8172 ft 268 kts 263°
2026-04-24 04:17 33.98677 -117.88884 7834 ft 265 kts 263°
2026-04-24 04:17 33.98466 -117.91069 7489 ft 261 kts 263°
2026-04-24 04:17 33.98256 -117.93229 7169 ft 258 kts 264°
2026-04-24 04:17 33.98046 -117.95358 6845 ft 254 kts 263°
2026-04-24 04:18 33.97838 -117.97462 6527 ft 252 kts 263°
2026-04-24 04:18 33.97634 -117.99509 6210 ft 249 kts 263°
2026-04-24 04:18 33.97429 -118.01562 5890 ft 245 kts 263°
2026-04-24 04:18 33.97227 -118.03585 5582 ft 242 kts 263°
2026-04-24 04:19 33.97029 -118.05580 5273 ft 238 kts 264°
2026-04-24 04:19 33.96833 -118.07547 4970 ft 234 kts 264°
2026-04-24 04:19 33.96640 -118.09477 4682 ft 230 kts 263°
2026-04-24 04:19 33.96447 -118.11370 4417 ft 226 kts 263°
2026-04-24 04:20 33.96259 -118.13234 4135 ft 223 kts 264°
2026-04-24 04:20 33.96075 -118.15076 3846 ft 220 kts 264°
2026-04-24 04:20 33.95894 -118.16893 3559 ft 217 kts 263°
2026-04-24 04:20 33.95714 -118.18690 3290 ft 215 kts 264°
2026-04-24 04:21 33.95539 -118.20429 3010 ft 203 kts 264°
2026-04-24 04:21 33.95374 -118.22072 2746 ft 193 kts 263°
2026-04-24 04:21 33.95218 -118.23621 2523 ft 179 kts 263°
2026-04-24 04:21 33.95074 -118.25060 2270 ft 167 kts 263°
2026-04-24 04:22 33.94938 -118.26402 2050 ft 156 kts 262°
2026-04-24 04:22 33.94808 -118.27690 1847 ft 165 kts 262°
2026-04-24 04:22 33.94662 -118.29132 1631 ft 172 kts 262°
2026-04-24 04:22 33.94523 -118.30518 1385 ft 161 kts 262°
2026-04-24 04:23 33.94393 -118.31804 1180 ft 149 kts 262°
2026-04-24 04:23 33.94273 -118.32993 1013 ft 139 kts 262°
2026-04-24 04:23 33.94158 -118.34122 830 ft 134 kts 261°
2026-04-24 04:23 33.94046 -118.35221 652 ft 133 kts 262°
2026-04-24 04:24 33.93936 -118.36298 476 ft 131 kts 262°
2026-04-24 04:24 33.93825 -118.37394 290 ft 130 kts 262°
2026-04-24 04:24 33.93721 -118.38442 160 ft 128 kts 261°
2026-04-24 04:24 33.93618 -118.39446 126 ft 103 kts 262°
2026-04-24 04:25 33.93555 -118.40059 126 ft 36 kts 269°
2026-04-24 04:25 33.93609 -118.40313 125 ft 20 kts 293°
2026-04-24 04:25 33.93626 -118.40382 125 ft 4 kts 284°
2026-04-24 04:25 33.93631 -118.40414 126 ft 3 kts 279°
2026-04-24 04:26 33.93629 -118.40437 126 ft 2 kts 262°
2026-04-24 04:26 33.93627 -118.40453 126 ft 1 kts 262°
2026-04-24 04:26 33.93626 -118.40462 126 ft 1 kts 260°
2026-04-24 04:26 33.93618 -118.40520 126 ft 13 kts 261°
2026-04-24 04:27 33.93604 -118.40659 124 ft 19 kts 263°
2026-04-24 04:27 33.93596 -118.40798 126 ft 17 kts 278°
2026-04-24 04:27 33.93668 -118.40895 121 ft 13 kts 349°
2026-04-24 04:27 33.93737 -118.40907 123 ft 6 kts 358°
2026-04-24 04:28 33.93745 -118.40907 124 ft 0 kts 358°
2026-04-24 04:28 33.93778 -118.40911 124 ft 0 kts 354°
2026-04-24 04:28 33.93797 -118.40932 123 ft 7 kts 278°
2026-04-24 04:28 33.93773 -118.41047 126 ft 20 kts 255°
2026-04-24 04:29 33.93802 -118.41156 126 ft 17 kts 336°
2026-04-24 04:29 33.93926 -118.41165 124 ft 23 kts 352°
2026-04-24 04:29 33.94033 -118.41185 123 ft 1 kts 354°
2026-04-24 04:29 33.94041 -118.41186 124 ft 2 kts 354°
2026-04-24 04:30 33.94051 -118.41187 123 ft 1 kts 354°
2026-04-24 04:30 33.94059 -118.41188 124 ft 1 kts 354°
2026-04-24 04:30 33.94065 -118.41189 124 ft 1 kts 354°
2026-04-24 04:30 33.94070 -118.41189 124 ft 1 kts 354°
2026-04-24 04:31 33.94081 -118.41192 122 ft 2 kts 350°
2026-04-24 04:31 33.94092 -118.41194 124 ft 1 kts 349°
2026-04-24 04:31 33.94102 -118.41196 123 ft 2 kts 350°
2026-04-24 04:31 33.94141 -118.41203 122 ft 0 kts 352°
2026-04-24 04:32 33.94166 -118.41190 126 ft 0 kts 56°
2026-04-24 04:32 33.94171 -118.41168 121 ft 6 kts 78°
2026-04-24 04:32 33.94173 -118.41140 124 ft 2 kts 85°
2026-04-24 04:32 33.94174 -118.41129 126 ft 1 kts 83°
2026-04-24 04:33 33.94175 -118.41121 126 ft 1 kts 83°
2026-04-24 04:33 33.94175 -118.41117 126 ft 0 kts 83°
2026-04-24 04:33 33.94175 -118.41116 126 ft 1 kts 83°
2026-04-24 04:33 33.94176 -118.41105 126 ft 0 kts 83°
2026-04-24 04:34 33.94177 -118.41098 126 ft 1 kts 83°